Flag for Canada Weather past 2 weeks in Caledon, Ontario, Canada

Now
72 °F

Overcast.


Feels Like: 72 °F
Forecast: 62 / 76 °F
Wind: 7 mph from Northeast

Location: Borden

Current Time: Aug 23, 2014 at 4:17:43 PM

Latest Report: Aug 23, 2014 at 3:00 PM


Visibility: 9 mi

Pressure: 30.11 "Hg

Humidity: 78%

Dew point: 64 °F

Location of CaledonLocation

Historic Weather in Caledon — Graph

°F

Caledon temperature yesterday

Maximum temperature yesterday: 75 °F (at 4:00 PM)
Minimum temperature yesterday: 63 °F (at 12:00 AM)
Average temperature yesterday: 66 °F

Past Weeks' High & Low Weather Summary

 TemperatureHumidityPressure
High84 °F (Aug 11, 3:00 PM)100% (Aug 8, 11:00 PM)30.20 "Hg (Aug 8, 11:00 PM)
Low45 °F (Aug 18, 3:02 AM)38% (Aug 15, 3:00 PM)29.64 "Hg (Aug 12, 7:00 PM)
Average63 °F84%29.94 "Hg
* Reported Aug 8 3:00 PM — Aug 23 3:00 PM, Caledon, Weather by CustomWeather, © 2014

Note: Actual official high and low records may vary slightly from our data, if they occured in-between our weather recording intervals... More about our weather records

Advertising

Caledon weather history for previous 24 hours

 ConditionsComfort  
Time TempWeatherWind HumidityBarometerVisibility
3:00 PM
Aug 23
72 °FOvercast.7 mph78%30.11 "Hg9 mi
2:00 PM72 °FOvercast.7 mph78%30.12 "Hg9 mi
1:00 PM72 °FOvercast.8 mph78%30.11 "Hg9 mi
12:00 PM68 °FOvercast.2 mph94%30.10 "Hg9 mi
11:50 AM68 °FOvercast.5 mph88%30.10 "Hg9 mi
11:00 AM68 °FLow clouds.7 mph94%30.10 "Hg9 mi
10:00 AM68 °FLow clouds.5 mph88%30.09 "Hg9 mi
9:00 AM66 °FLow clouds.6 mph100%30.09 "Hg9 mi
8:00 AM66 °FLow clouds.3 mph100%30.08 "Hg9 mi
7:00 AM66 °FOvercast.No wind100%30.07 "Hg9 mi
6:00 AM64 °FMostly cloudy.2 mph100%30.05 "Hg7 mi
5:54 AM64 °FMostly cloudy.2 mph100%30.05 "Hg7 mi
5:00 AM64 °FMostly cloudy.No wind100%30.04 "Hg8 mi
4:00 AM64 °FLow clouds.No wind100%30.04 "Hg9 mi
3:48 AM64 °FLow clouds.2 mph100%30.04 "Hg9 mi
3:00 AM64 °FOvercast.No wind100%30.04 "Hg9 mi
2:00 AM64 °FOvercast.2 mph100%30.05 "Hg9 mi
1:00 AM63 °FMostly cloudy.No wind100%30.06 "Hg9 mi
12:59 AM63 °FMostly cloudy.No wind100%30.05 "Hg9 mi
12:03 AM63 °FPartly cloudy.No wind100%30.04 "Hg9 mi
11:00 PM
Aug 22
63 °FMostly cloudy.No wind100%30.04 "Hg6 mi
10:59 PM63 °FMostly cloudy.No wind100%30.04 "Hg5 mi
10:00 PM64 °FPassing clouds.2 mph94%30.04 "Hg9 mi
9:00 PM66 °FSunny.5 mph88%30.03 "Hg9 mi
8:00 PM70 °FSunny.3 mph83%30.01 "Hg9 mi
7:00 PM73 °FSunny.6 mph74%30.00 "Hg9 mi
6:00 PM75 °FSunny.3 mph69%29.99 "Hg9 mi
5:00 PM75 °FSunny.No wind69%29.99 "Hg9 mi
4:00 PM75 °FPassing clouds.5 mph65%30.00 "Hg9 mi
Weather by CustomWeather, © 2014

See weather overviewHow to use our weather pages